Location: Wildlife_Club
(35.6000°N, 81.4330°W)
Time: 04:56:25
(UTC-04:00)

Vanguard 2 Rocket - Pass Details

Date: 21 June 2019
Orbit: 554 x 3326 km, 32.9° (Epoch: 16 July)

Event Time Altitude Azimuth Distance (km) Brightness Sun altitude
Rises 05:12:06 0° 283° (WNW) 6,146 10.8 -10.6°
Reaches altitude 10° 05:15:57 10° 277° (W) 5,437 10.4 -10.0°
Maximum altitude 05:32:09 46° 212° (SSW) 3,990 9.7 -7.4°
Drops below altitude 10° 05:50:29 10° 147° (SSE) 6,047 11.1 -4.3°
Sets 05:55:08 0° 141° (SE) 6,852 11.5 -3.5°
